User: anonymous   Login
Location: Unspecified
(0.0000°N, 0.0000°E)
Time: 20:42:14
(UTC+00:00)
Language:

STARLINK-35323 - Orbit

View from above orbital plane
View from above orbital plane
View from above satellite
View from above satellite

Ground track
Ground track

The orbit is defined by the following mean orbital elements,

1 66071U          26145.55406656 +.00000000 +00000-0 +24659-3 0 00007
2 66071  53.1597 247.9633 0001340  90.2988 269.8166 15.30199690    01
Epoch (UTC): 25 May 2026 13:17:51
Eccentricity: 0.0001340
inclination: 53.1597°
perigee height: 474 km
apogee height: 476 km
right ascension of ascending node: 247.9633°
argument of perigee: 90.2988°
revolutions per day: 15.30199690
mean anomaly at epoch: 269.8166°

The dashed part of the orbit path shows where the satellite is in the earth's shadow,  

DLR